Home > Time Zones > World Clock > Weather > Palau > Koror > Past weeks

Flag for Palau Weather past 2 weeks in Koror, Palau

Now
84 °F

Partly sunny.


Feels Like: 94 °F
Forecast: 80 / 88 °F
Wind: 5 mph from Northeast

Location: Koror / Palau Island

Current Time: Mar 29, 2015 at 10:31:43 AM

Latest Report: Mar 29, 2015 at 9:50 AM


Visibility: 15 mi

Pressure: 29.91 "Hg

Humidity: 79%

Dew point: 77 °F

Location of KororLocation

Historic Weather in Koror — Graph

°F

Koror temperature yesterday

Maximum temperature yesterday: 88 °F (at 11:50 AM)
Minimum temperature yesterday: 79 °F (at 5:52 AM)
Average temperature yesterday: 83 °F

Past Weeks' High & Low Weather Summary

 TemperatureHumidityPressure
High88 °F (Mar 19, 12:50 PM)100% (Mar 15, 8:55 AM)29.99 "Hg (Mar 15, 8:55 AM)
Low72 °F (Mar 17, 11:50 PM)59% (Mar 16, 1:50 PM)29.80 "Hg (Mar 17, 4:50 PM)
Average80 °F81%29.90 "Hg
* Reported Mar 14 8:52 AM — Mar 29 8:50 AM, Koror, Weather by CustomWeather, © 2015

Note: Actual official high and low records may vary slightly from our data, if they occured in-between our weather recording intervals... More about our weather records

Advertising

Koror weather history for previous 24 hours

 ConditionsComfort  
Time TempWeatherWind HumidityBarometerVisibility
8:50 AM
Sun, Mar 29
82 °FBroken clouds.7 mph84%29.91 "Hg15 mi
7:50 AM82 °FBroken clouds.7 mph84%29.90 "Hg15 mi
6:54 AM81 °FBroken clouds.3 mph89%29.88 "Hg15 mi
5:51 AM77 °FPartly cloudy.5 mph100%29.86 "Hg15 mi
4:52 AM77 °FPassing clouds.5 mph100%29.84 "Hg15 mi
3:53 AM79 °FPassing clouds.5 mph94%29.83 "Hg15 mi
2:50 AM79 °FPassing clouds.No wind89%29.83 "Hg15 mi
1:51 AM77 °FPassing clouds.No wind94%29.84 "Hg15 mi
12:52 AM77 °FPassing clouds.No wind94%29.86 "Hg15 mi
11:51 PM
Sat, Mar 28
79 °FPartly cloudy.No wind89%29.89 "Hg14 mi
10:53 PM79 °FPartly cloudy.No wind89%29.90 "Hg14 mi
9:52 PM79 °FPartly cloudy.No wind89%29.91 "Hg14 mi
8:55 PM79 °FPartly cloudy.No wind89%29.90 "Hg14 mi
7:50 PM81 °FPartly cloudy.No wind84%29.89 "Hg14 mi
6:55 PM81 °FPartly cloudy.3 mph84%29.88 "Hg14 mi
5:54 PM82 °FBroken clouds.3 mph79%29.87 "Hg14 mi
4:51 PM84 °FBroken clouds.12 mph74%29.84 "Hg14 mi
3:50 PM86 °FBroken clouds.12 mph70%29.84 "Hg14 mi
2:50 PM88 °FBroken clouds.13 mph70%29.84 "Hg14 mi
1:50 PM88 °FBroken clouds.14 mph66%29.86 "Hg14 mi
12:50 PM86 °FBroken clouds.13 mph75%29.89 "Hg14 mi
11:50 AM88 °FPartly sunny.13 mph70%29.91 "Hg14 mi
10:50 AM86 °FBroken clouds.10 mph70%29.93 "Hg14 mi
Weather by CustomWeather, © 2015

See weather overviewHow to use our weather pages